ブルーイントン彗星

154P/Brewington (2013)

English version
Home page
Updated on May 7, 2015

---------------------------------------------------------------------

・ プロフィール

・ 写真集

・ 軌道要素

Epoch 2013 Nov. 4.0 TT = JDT 2456600.5
T 2013 Dec. 12.45639 TT                                 MPC
q   1.6078359            (2000.0)            P               Q
n   0.09143406     Peri.   49.02198     +0.83296305     -0.54644328
a   4.8797480      Node   343.49102     +0.36927207     +0.66609279
e   0.6705084      Incl.   17.83195     +0.41208093     +0.50766143
P  10.8
From 2587 observations 1992 Aug. 29-2014 Feb. 9, mean residual 0".6.
     Nongravitational parameters A1 = +3.77, A2 = +0.1661.

・ 星図

・ 光度変化

        m1 =  0.0 + 5 logΔ + 50   log r  [   ,105]  (              〜2014年 3月27日)
        m1 = 11.6 + 5 logΔ + 10.7 log r  [105,   ]  (2014年 3月27日〜              )

---------------------------------------------------------------------

軌道要素はM.P.E.C. 2014-C43に掲載されたものです。
星図はステラナビゲータ Ver.8 (アストロアーツ) で作成したものです。
光度グラフはComet for Windowsで作成したものです。

---------------------------------------------------------------------

Copyright(C) Seiichi Yoshida (comet@aerith.net). All rights reserved.